Terug naar catalogus

FENGYUN 1C DEB

LostPO
NORAD 37579·DEBRIS·🇨🇳 China

Gelanceerd May 10, 1999 vanaf Taiyuan Satellite Launch Center

Loading…

Volgende Passages (komende 24 uur)

TLE

VerouderdSource: Space-Track

Epoch: May 11, 2024, 00:38 UTC

1 37579U 99025EKC 24132.02656383  .00015293  00000-0  71287-2 0  9998
2 37579  99.2530  62.0632 0033241 205.8836 154.0677 14.20218596809730

Volg FENGYUN 1C DEB in realtime met AllMySat

Download on the App Store